Temp
9 10 11 11 11 11 12 12 12 12 12 12 14 14 17 18 19 17 23 28 27 26 26 28 29 31 31 33 33 34 32 35 35 34 36 38 36 37 36 34 34 34 32 29 26
9 10 11 11 11 11 12 12 12 12 12 12 13 16 17 17 16 24 26 26 27 26 27 30 32 33 33 33 34 33 34 31 37 30 36 38 37 36 35 34 33 34 32 28 27
10 11 11 12 12 12 12 12 12 13 13 13 15 15 17 16 24 31 29 27 26 27 29 31 32 34 33 35 35 35 28 28 38 38 35 38 37 37 35 34 34 32 31 30 27
11 11 12 12 12 13 13 14 14 14 14 12 14 15 16 16 29 29 28 27 26 26 29 32 34 33 34 35 36 35 36 38 39 38 38 36 38 37 37 37 36 34 32 31 29
11 12 12 12 13 14 13 15 15 16 15 12 10 13 14 24 28 28 28 25 24 26 31 33 33 34 34 36 36 36 36 37 38 38 38 38 37 37 37 37 36 34 32 31 31
11 12 12 12 13 14 14 15 16 17 15 11 10 10 18 25 31 31 29 24 27 28 32 34 34 35 36 37 36 37 37 37 38 38 38 38 38 37 37 37 35 33 32 32 32
11 12 12 13 13 14 15 15 16 16 17 13 10 13 23 27 30 30 29 28 30 30 34 34 35 35 36 36 37 37 36 37 37 38 38 39 37 37 37 36 35 34 33 33 33
11 11 12 13 13 14 16 15 14 14 16 15 10 16 25 29 28 29 30 30 31 31 33 34 34 36 36 37 36 35 36 36 38 38 39 38 35 38 37 36 35 34 34 33 33
11 11 12 13 14 16 17 16 13 14 15 11 15 20 28 26 28 29 30 31 32 32 33 34 34 34 35 34 35 36 35 36 37 39 39 38 30 27 37 37 35 34 34 34 33
11 12 13 14 14 16 18 18 15 13 15 17 20 23 27 31 31 30 30 31 33 33 33 33 34 33 34 34 33 36 36 38 37 39 39 38 35 30 38 37 36 35 34 34 33
11 11 12 14 14 17 17 23 23 22 22 26 28 28 31 32 30 30 31 32 33 33 32 32 32 32 33 35 36 38 38 38 39 39 38 38 37 37 38 38 37 36 35 34 34
11 11 11 14 16 17 19 21 19 17 19 23 25 27 28 30 30 31 31 31 32 31 32 32 31 34 35 36 35 36 37 38 39 38 39 38 38 39 39 39 38 38 36 35 35
11 12 12 14 16 18 19 19 18 18 20 24 28 28 29 30 30 32 32 32 31 32 32 33 34 34 35 35 35 35 36 37 38 39 39 38 37 38 40 40 39 39 37 37 36
11 12 13 15 16 19 21 18 18 18 21 28 29 30 30 30 29 32 32 32 32 32 33 34 36 35 35 35 36 35 37 37 37 38 37 38 36 38 39 39 39 38 39 38 37
10 11 13 12 15 20 18 18 18 19 24 31 29 29 31 29 34 31 33 33 33 33 34 33 35 35 34 35 36 35 37 36 37 37 37 37 37 39 39 39 39 39 39 39 38
11 11 12 16 17 19 18 18 20 21 24 30 30 29 29 29 31 34 32 33 34 34 34 35 36 36 36 36 36 37 36 37 36 36 35 36 38 38 39 39 40 40 40 39 39
12 12 12 13 18 18 18 21 22 22 30 26 25 27 28 30 30 32 31 30 31 31 32 34 35 36 36 35 36 35 35 34 34 34 34 37 37 37 40 41 41 41 40 40 40
12 13 15 16 18 18 19 21 20 23 25 23 23 23 25 28 31 31 31 31 31 33 34 33 32 35 36 35 35 35 35 34 32 34 35 37 36 38 40 41 42 42 42 41 40
11 17 18 18 17 18 21 21 22 21 21 20 21 24 27 29 28 31 31 31 32 33 32 34 33 36 36 36 36 35 35 37 37 38 38 38 38 40 41 41 41 40 41 41 40
11 18 19 18 18 19 21 20 21 21 20 20 19 22 23 25 27 28 31 32 32 33 34 34 34 36 36 36 36 36 37 35 36 35 36 38 38 39 39 39 41 41 40 41 41
13 20 19 17 18 21 21 20 19 19 20 19 19 19 20 18 19 24 29 28 28 31 33 34 35 35 37 35 35 35 36 36 37 37 36 37 38 41 40 40 40 40 41 41 42
17 19 18 17 20 20 20 18 16 19 19 19 19 19 19 20 20 20 23 26 24 26 28 33 33 33 36 37 37 36 36 36 35 34 37 38 39 41 41 41 41 40 41 42 42
17 19 19 18 18 18 19 18 19 18 18 17 16 15 17 18 15 18 19 23 23 25 26 29 30 31 33 36 36 35 36 37 37 37 36 36 38 39 40 39 40 40 41 41 41
16 17 19 20 20 18 17 16 17 18 17 17 16 15 15 17 19 17 18 20 23 24 20 22 28 31 34 35 36 34 35 37 37 36 36 37 38 38 38 38 38 39 40 41 41
13 13 15 14 16 15 15 16 16 15 16 17 15 12 12 13 16 13 15 19 23 22 24 26 26 30 32 35 35 36 35 36 36 37 36 38 37 38 39 39 39 39 38 38 38
8 9 13 12 14 14 15 15 15 15 15 15 15 13 14 13 12 12 14 16 19 22 23 25 25 28 30 32 31 31 35 36 37 36 37 37 38 40 39 39 38 38 38 38 38
7 7 7 10 12 13 14 15 14 15 16 16 15 15 15 15 16 17 17 18 19 19 20 22 25 26 27 30 30 29 32 33 35 37 36 36 37 39 38 38 37 36 36 37 38
Height
816 812 807 804 799 795 791 788 785 781 779 776 773 771 769 767 764 764 756 749 751 752 755 756 757 754 753 749 748 744 758 744 737 742 733 715 727 722 728 743 744 745 754 771 786
815 811 807 802 798 794 789 785 781 778 775 772 769 767 766 764 761 751 741 743 746 749 752 748 748 748 748 745 742 746 739 754 719 733 724 714 720 730 737 745 750 749 757 776 786
815 810 805 801 796 791 786 781 777 773 770 768 766 764 764 763 755 725 725 731 739 744 746 744 743 743 746 735 736 733 759 746 713 708 714 714 722 724 736 748 745 756 763 774 785
814 809 804 799 793 788 782 777 772 768 765 762 762 762 762 765 747 722 725 727 733 741 743 738 737 742 741 739 725 739 721 711 707 712 707 719 712 725 727 730 735 747 760 771 780
813 808 802 796 790 784 778 772 767 762 758 755 756 759 761 752 731 726 726 727 732 736 733 730 733 733 738 725 723 731 723 715 711 711 709 707 718 724 728 727 735 748 760 768 776
812 806 800 793 787 780 774 768 761 756 753 751 752 756 757 746 720 722 726 728 728 730 726 726 725 723 725 718 725 717 719 713 709 711 709 715 716 721 722 727 738 749 758 764 771
811 805 798 791 784 777 770 764 757 753 750 747 748 752 745 726 719 721 723 724 724 724 719 721 720 723 717 723 711 713 727 721 714 708 710 704 721 723 712 725 740 749 755 761 766
811 804 797 789 781 774 767 761 755 751 747 743 746 752 730 713 716 719 719 721 721 722 719 719 720 718 718 708 719 728 724 735 710 708 703 710 735 714 713 724 739 745 751 757 762
811 803 796 788 779 769 764 758 754 751 746 745 748 746 720 710 711 711 714 714 716 718 717 717 718 724 722 730 736 726 738 731 719 696 702 712 752 738 710 720 733 740 747 752 758
810 802 794 786 778 769 760 753 751 751 750 748 744 743 713 701 697 704 708 710 710 713 717 717 721 729 725 727 745 730 731 713 716 699 701 712 727 734 704 714 726 736 742 748 753
809 801 794 785 777 770 760 749 746 743 741 724 715 707 694 694 700 701 703 705 706 711 722 718 729 726 719 715 712 704 708 711 697 688 703 711 714 714 705 708 715 725 735 741 745
808 800 793 785 779 773 767 763 772 773 748 725 710 708 702 697 697 695 700 704 704 712 712 721 719 706 705 705 711 709 706 704 691 693 698 706 710 702 697 701 706 711 726 732 738
807 799 791 784 779 774 771 772 771 768 751 704 687 687 688 696 692 684 690 691 699 704 705 706 697 698 701 705 714 712 711 705 705 692 689 705 717 706 690 689 695 700 710 720 728
808 800 791 782 780 775 769 772 769 767 747 686 677 673 678 684 688 674 679 684 688 695 694 696 682 692 698 703 701 716 697 700 703 706 723 702 738 709 695 697 698 700 700 709 718
807 801 793 789 785 775 777 771 768 765 738 666 677 674 667 678 654 667 668 677 680 683 687 688 683 688 698 693 689 701 689 703 704 709 709 708 721 694 685 698 694 694 692 694 704
805 799 795 788 780 777 775 770 765 758 728 673 672 678 680 677 665 651 665 671 671 677 673 673 662 669 676 678 682 686 697 698 705 713 733 710 707 701 687 684 680 681 683 686 691
803 798 794 791 783 778 773 763 756 747 678 702 703 691 680 671 671 659 669 678 677 693 684 676 669 664 663 683 678 691 704 727 734 728 727 695 707 696 669 662 664 670 675 677 683
800 795 791 786 781 777 771 759 762 730 711 720 722 713 704 682 661 660 664 671 667 663 669 682 693 662 656 667 681 689 691 707 734 724 713 690 701 685 661 653 649 651 657 666 675
799 788 785 783 779 776 765 753 737 739 740 743 732 706 679 667 672 656 660 660 656 656 672 664 668 638 647 656 661 679 687 670 686 673 688 676 670 659 650 651 654 657 654 657 665
803 786 780 781 777 771 759 754 745 748 751 751 750 727 710 697 682 671 655 646 649 645 643 644 663 637 641 648 652 655 659 696 681 705 702 675 671 672 662 660 650 654 657 653 655
796 778 776 777 772 759 752 752 758 757 755 755 750 741 730 739 729 691 660 663 660 648 641 643 644 641 632 646 655 663 662 665 668 671 690 692 673 633 640 644 650 649 646 648 649
795 781 776 777 763 754 757 762 768 757 752 752 749 742 734 729 725 716 691 670 682 671 660 636 648 657 630 625 631 640 653 653 676 688 670 667 662 620 622 627 633 642 639 639 642
796 780 775 775 768 763 760 765 757 758 756 761 763 764 749 739 748 721 714 690 687 677 673 656 654 661 647 628 629 641 637 637 648 654 672 684 667 630 633 637 630 637 636 637 638
801 783 771 771 765 768 769 771 762 756 758 759 762 763 758 737 726 728 721 708 692 688 695 687 657 646 635 622 624 646 636 634 638 659 661 662 657 649 644 646 644 640 636 636 641
813 804 796 792 778 780 780 769 763 767 760 756 761 774 773 760 742 747 738 717 693 692 682 676 674 651 631 617 621 620 632 629 638 639 656 645 654 642 640 642 643 642 646 650 651
826 821 806 802 791 785 776 772 765 765 766 759 758 769 766 764 763 759 749 736 715 699 690 679 681 661 649 631 640 647 622 626 627 636 639 642 643 624 628 634 644 650 652 655 654
828 825 820 805 791 787 778 771 770 764 761 759 760 758 752 754 748 741 741 729 719 718 714 701 681 672 671 649 653 662 640 636 627 624 635 650 641 627 636 640 647 653 655 655 654
Wind_Speed
24 25 26 27 26 26 26 24 24 24 24 22 20 19 17 17 18 12 16 14 17 18 12 17 23 23 21 16 16 10 11 8 7 13 7 11 13 9 12 13 8 3 20 28 32
26 27 28 29 29 28 28 27 26 26 24 21 19 18 17 14 18 26 31 24 25 19 18 22 23 22 17 19 12 14 11 12 12 21 8 12 15 11 11 12 11 14 26 33 31
28 29 31 31 33 32 31 30 30 26 22 20 19 18 14 9 15 12 6 41 28 23 24 22 22 21 22 16 19 18 6 27 10 1 21 13 17 10 14 11 13 18 25 28 31
30 31 33 34 35 34 36 33 29 27 27 23 20 16 9 8 6 9 3 14 34 26 26 25 21 23 22 22 18 18 11 9 5 6 5 10 16 14 5 14 15 19 25 26 27
32 33 35 36 37 38 38 31 33 30 26 20 15 10 4 10 21 12 5 11 20 30 32 24 25 24 23 19 15 18 16 12 5 8 7 3 10 10 12 9 17 20 24 26 24
33 34 36 38 39 40 36 33 33 23 20 14 12 9 9 18 8 11 9 13 21 32 32 27 22 23 22 18 18 13 17 11 13 13 11 13 11 14 17 13 18 20 23 23 24
34 36 37 38 40 43 31 34 27 17 20 12 13 14 14 19 4 7 15 19 22 30 21 28 23 20 19 18 13 16 13 16 15 12 12 17 18 18 20 17 19 21 21 22 23
35 37 39 39 41 43 26 32 18 14 19 6 14 12 9 4 20 16 15 21 21 25 24 24 24 20 24 16 6 17 18 17 20 19 16 17 14 16 20 19 20 21 21 21 23
35 38 40 40 40 33 31 22 11 11 7 11 10 14 11 6 15 22 22 24 24 23 23 21 19 15 23 18 14 17 17 21 19 21 17 18 9 20 21 19 19 20 20 21 22
35 37 40 40 40 27 31 23 11 6 2 7 10 7 9 11 15 21 25 25 23 19 18 17 15 18 18 20 19 22 22 20 20 21 20 17 10 9 20 19 20 19 20 20 23
37 38 40 38 29 26 30 16 3 7 12 15 6 16 7 7 4 17 25 22 22 22 22 23 19 26 30 28 23 22 22 22 20 13 20 18 14 20 18 19 20 22 21 22 23
36 37 40 35 16 20 20 12 9 10 16 21 28 28 34 9 10 16 27 21 23 26 25 19 28 27 26 26 28 27 22 22 14 18 19 18 18 19 19 20 18 21 22 22 21
37 38 38 30 10 15 9 18 15 14 9 19 26 23 23 26 19 21 29 28 29 30 31 29 19 28 26 25 26 27 25 19 19 17 13 10 16 16 19 17 18 20 21 21 23
35 36 32 29 6 15 10 20 16 11 7 9 8 6 18 19 18 27 34 31 19 32 30 30 24 27 27 29 27 28 26 22 20 19 17 22 15 20 18 17 17 21 22 24 23
35 35 22 11 13 11 18 21 15 6 7 10 9 6 7 21 6 28 36 32 26 23 28 31 24 21 28 27 28 26 23 23 21 18 18 20 18 16 24 23 22 22 24 23 25
35 30 16 8 13 17 21 20 8 7 14 3 5 6 10 20 26 21 27 32 29 24 25 29 20 23 20 26 23 21 21 20 23 19 19 24 20 16 14 19 23 23 22 22 24
35 20 10 12 13 21 20 12 8 9 7 10 15 19 18 13 22 20 30 31 30 30 30 27 32 23 21 23 23 23 20 14 17 18 17 25 23 19 16 20 19 20 23 22 22
35 12 10 8 18 17 15 11 12 15 17 21 21 25 23 21 17 25 24 27 34 30 17 22 24 33 22 28 24 26 25 16 22 19 18 24 25 23 24 20 12 21 21 24 24
29 10 5 14 16 14 9 10 11 14 19 20 26 22 15 15 8 22 26 27 30 34 31 25 31 30 32 26 27 24 27 26 23 23 17 21 21 25 21 24 20 13 20 23 24
24 18 3 16 14 13 9 12 13 14 17 17 20 17 24 22 9 17 20 20 26 34 32 29 19 32 28 26 29 30 22 24 18 24 19 20 15 16 21 16 19 24 17 21 22
16 7 10 18 13 9 9 8 14 13 15 16 19 24 23 16 24 26 20 5 10 12 26 33 24 18 27 28 27 25 24 28 21 19 17 12 11 14 15 19 22 20 23 21 21
11 7 13 17 9 3 8 8 8 14 11 14 15 21 23 19 21 22 23 7 12 14 18 36 12 22 30 28 27 28 30 27 18 24 18 13 8 9 5 9 15 20 18 23 21
9 10 4 13 6 8 10 14 17 11 11 7 6 10 21 18 6 14 10 9 9 12 12 3 16 17 25 26 25 30 28 28 26 20 22 17 10 13 7 1 10 14 16 16 18
7 7 6 8 6 11 12 13 15 7 9 7 6 8 18 17 17 11 9 11 8 10 13 9 17 23 20 24 23 29 31 30 27 19 19 20 17 12 10 8 5 3 5 9 14
5 5 6 7 11 11 12 16 13 12 5 10 0 6 10 8 17 8 10 13 18 4 10 7 15 19 25 19 8 26 29 31 31 23 25 16 21 15 15 10 10 12 8 5 4
4 4 7 11 14 10 13 15 13 9 13 16 8 4 13 11 10 12 15 12 6 13 8 7 13 19 22 21 8 14 19 33 28 28 23 23 17 15 12 8 5 6 6 5 8
3 10 5 8 11 11 10 12 15 18 11 9 10 14 12 9 12 14 15 18 16 13 13 11 10 9 15 17 12 18 19 16 20 26 25 21 19 15 8 6 4 4 6 6 7
Wind_Direction
358 357 355 351 347 342 339 335 331 325 320 314 310 311 311 311 304 269 243 234 217 227 180 185 198 200 207 209 238 221 252 243 285 83 78 144 108 92 88 127 132 93 132 141 151
358 356 354 352 349 343 339 332 328 321 316 312 308 304 308 318 293 264 248 233 229 206 192 188 197 198 206 215 203 235 242 14 263 150 204 133 123 120 140 141 126 116 122 140 155
359 356 354 353 351 345 339 331 325 319 312 308 307 304 303 320 278 260 231 225 214 204 207 203 203 204 216 217 214 223 204 257 126 347 212 137 118 146 124 161 148 136 144 152 152
357 354 353 352 349 347 340 332 330 321 313 300 293 291 293 276 262 58 43 204 215 207 210 205 209 205 216 213 215 249 229 282 116 158 154 232 127 124 168 134 140 140 155 159 163
355 353 351 350 348 346 340 334 327 321 311 298 273 260 258 226 249 279 294 180 189 191 208 197 206 205 215 217 219 222 261 211 224 196 243 222 149 124 129 130 138 145 161 167 172
354 352 350 348 345 344 339 334 328 323 316 297 254 209 226 249 266 214 198 175 186 191 205 201 207 207 221 235 215 217 241 221 220 214 188 228 160 194 131 145 141 155 168 174 178
356 354 350 347 344 340 335 335 329 323 321 290 226 194 233 238 207 217 205 198 191 197 200 205 207 207 227 240 226 234 213 234 244 226 214 232 163 213 140 156 154 163 173 178 182
356 353 349 346 343 339 333 333 324 330 322 284 178 199 253 219 242 236 207 203 202 209 212 202 214 219 230 236 232 222 235 233 208 213 220 213 182 189 155 162 165 169 174 180 185
354 351 347 345 342 340 335 329 313 345 332 143 163 222 259 175 222 217 211 201 199 203 213 202 216 224 221 239 226 210 221 224 220 195 201 211 102 265 162 171 172 175 177 182 185
352 350 347 345 343 343 337 325 269 284 178 224 264 215 246 230 206 201 203 204 195 196 203 211 208 215 227 215 221 208 218 206 229 175 214 201 151 118 170 177 175 181 181 186 188
351 349 346 345 347 356 340 333 279 201 244 263 198 253 299 218 163 192 191 192 201 198 201 200 204 214 213 216 227 240 206 237 206 187 202 205 202 188 186 187 190 177 189 190 193
349 347 345 345 353 3 16 36 26 308 296 272 258 258 259 266 218 199 188 195 193 200 197 191 219 218 219 213 222 236 244 214 236 149 215 201 217 210 206 188 200 184 190 194 191
349 346 343 343 333 353 11 10 335 323 267 285 242 233 225 228 230 199 192 200 197 200 198 207 214 219 212 218 215 225 231 232 228 210 205 243 241 233 208 193 189 207 184 195 192
348 345 343 342 298 342 21 340 333 322 281 252 198 233 218 200 234 238 195 200 193 209 204 221 225 196 214 217 213 220 223 235 232 237 215 204 240 209 225 197 193 200 191 189 196
346 345 341 336 313 341 334 327 324 264 281 106 122 98 184 192 196 199 189 206 214 207 210 211 215 200 211 214 217 228 212 223 242 250 249 239 220 241 196 209 193 203 204 198 188
343 342 337 355 287 337 326 318 279 237 242 125 101 206 193 215 251 171 189 212 222 217 217 228 209 222 218 215 216 220 232 227 219 235 239 234 237 227 224 211 198 193 211 198 189
340 338 315 313 328 325 323 289 257 243 288 16 359 326 322 266 218 232 193 197 209 214 216 213 227 212 227 208 208 213 209 211 218 218 230 225 233 234 237 225 210 202 197 199 202
338 321 291 296 323 321 307 270 261 288 332 353 334 310 281 270 248 213 201 209 213 214 213 212 214 219 197 217 204 206 213 219 214 215 225 229 232 226 235 250 246 203 203 194 195
340 314 282 339 328 315 282 271 302 357 350 337 322 295 280 234 288 216 213 216 208 220 221 205 225 194 218 209 216 196 217 222 239 216 237 215 219 233 237 222 207 229 203 196 190
325 300 249 339 320 283 268 278 332 357 335 318 303 290 311 341 299 261 227 227 226 210 234 243 227 225 197 209 216 229 204 214 231 244 235 231 243 208 202 228 213 211 206 219 183
297 298 35 337 289 267 295 348 328 334 308 306 298 293 295 300 313 298 262 67 349 282 235 238 248 244 207 203 200 206 225 210 227 231 240 235 223 222 218 197 214 221 211 201 201
302 307 10 327 286 43 312 352 298 293 300 311 306 302 290 286 284 291 313 45 358 313 288 216 239 235 211 199 213 211 216 202 222 219 238 253 229 72 101 206 195 209 215 208 199
312 295 213 324 356 332 338 320 286 315 330 329 310 317 306 288 296 327 303 353 349 314 1 305 224 225 237 190 197 219 213 221 208 233 216 225 197 136 120 161 197 190 207 207 209
306 312 346 317 351 330 338 305 322 322 309 304 318 331 336 297 264 276 295 315 321 318 328 295 254 227 215 199 196 207 220 213 222 213 224 209 234 109 140 130 121 202 159 177 202
342 311 348 305 333 333 303 287 288 317 303 308 171 352 332 312 312 348 329 292 282 134 285 274 248 242 253 258 250 205 214 215 219 224 221 208 202 176 173 152 125 149 159 153 160
302 317 326 293 293 291 287 293 317 314 321 304 304 300 288 284 285 301 304 324 315 337 321 296 266 252 251 254 234 262 241 216 222 218 232 231 242 193 192 188 183 193 201 237 201
297 281 294 275 292 295 289 311 308 308 291 311 310 307 299 302 290 286 268 272 280 287 303 302 267 241 237 239 241 242 233 240 236 216 226 223 226 241 222 180 194 235 287 280 253